GW5730 Weather Reports


time (UTC)temp
F
wind
direction
speed
knots
gust
knots
rain 1hr
in
rain 24hr
in
rain mn
in
humidity
%
barometer
mb
20260506014436 66 214 6.1 0.0 0.00 0.00 0.00 64 1008.5
20260506012936 67 196 5.2 0.0 0.00 0.00 0.00 62 1008.5
20260506011453 67 223 7.0 0.0 0.00 0.00 0.00 62 1008.5
20260506005936 68 198 7.0 0.0 0.00 0.00 0.00 60 1007.9
20260506004436 69 168 4.3 0.0 0.00 0.00 0.00 59 1007.9
20260506002936 70 190 5.2 0.0 0.00 0.00 0.00 57 1007.9
20260506001453 71 199 11.3 0.0 0.00 0.00 0.00 56 1007.9
20260505235936 72 199 6.1 0.0 0.00 0.00 0.00 54 1007.9
20260505234436 73 184 7.0 0.0 0.00 0.00 0.00 53 1007.9
20260505232936 73 215 11.3 0.0 0.00 0.00 0.00 53 1007.9
20260505231436 74 179 7.0 0.0 0.00 0.00 0.00 52 1007.9
20260505225936 75 158 17.4 0.0 0.00 0.00 0.00 50 1007.5
20260505224453 76 212 14.8 0.0 0.00 0.00 0.00 49 1007.5
20260505222936 77 202 16.5 0.0 0.00 0.00 0.00 47 1007.5
20260505221436 78 165 7.8 0.0 0.00 0.00 0.00 45 1007.5
20260505215936 78 205 14.8 0.0 0.00 0.00 0.00 44 1007.7
20260505214436 79 169 11.3 0.0 0.00 0.00 0.00 41 1007.7
20260505212953 79 210 9.6 0.0 0.00 0.00 0.00 40 1007.7
20260505211436 80 212 8.7 0.0 0.00 0.00 0.00 37 1007.7
20260505205936 81 152 2.6 0.0 0.00 0.00 0.00 34 1008.0
20260505204453 80 227 1.7 0.0 0.00 0.00 0.00 30 1008.0
20260505202936 80 224 15.6 0.0 0.00 0.00 0.00 31 1008.0
20260505201436 80 209 6.1 0.0 0.00 0.00 0.00 31 1008.0
20260505195936 80 224 13.0 0.0 0.00 0.00 0.00 30 1009.1
20260505194436 81 225 14.8 0.0 0.00 0.00 0.00 33 1009.1
20260505192936 80 142 4.3 0.0 0.00 0.00 0.00 32 1009.1
20260505191436 81 208 6.1 0.0 0.00 0.00 0.00 31 1009.1
20260505185953 80 248 6.1 0.0 0.00 0.00 0.00 31 1009.7
20260505184436 80 204 13.9 0.0 0.00 0.00 0.00 31 1009.7
20260505182953 79 246 10.4 0.0 0.00 0.00 0.00 31 1009.7
20260505181436 79 212 6.1 0.0 0.00 0.00 0.00 35 1009.7
20260505175936 79 204 16.5 0.0 0.00 0.00 0.00 35 1009.9
20260505174436 79 210 12.2 0.0 0.00 0.00 0.00 37 1009.9
20260505172936 78 233 8.7 0.0 0.00 0.00 0.00 37 1009.9
20260505171436 77 218 13.0 0.0 0.00 0.00 0.00 38 1009.9
20260505165936 78 167 16.5 0.0 0.00 0.00 0.00 39 1010.9
20260505164436 76 242 8.7 0.0 0.00 0.00 0.00 39 1010.9
20260505163010 76 184 7.8 0.0 0.00 0.00 0.00 42 1010.9
20260505161510 76 302 0.9 0.0 0.00 0.00 0.00 47 1010.9
20260505152936 73 234 13.0 0.0 0.00 0.00 0.00 54 1010.9
20260505151454 73 195 3.5 0.0 0.00 0.00 0.00 56 1010.9
20260505124436 60 174 4.3 0.0 0.00 0.00 0.00 85 1010.8
20260505122936 59 143 1.7 0.0 0.00 0.00 0.00 87 1010.8
20260505121436 58 131 1.7 0.0 0.00 0.00 0.00 89 1010.8
20260505115953 55 20 0.0 0.0 0.00 0.00 0.00 90 1010.3
20260505114436 53 76 0.0 0.0 0.00 0.00 0.00 90 1010.3
20260505112936 51 9 0.9 0.0 0.00 0.00 0.00 90 1010.3
20260505111436 50 8 0.0 0.0 0.00 0.00 0.00 90 1010.3
20260505101436 50 8 0.0 0.0 0.00 0.00 0.00 89 1010.0
20260505095936 50 8 0.0 0.0 0.00 0.00 0.00 88 1009.7
20260505094436 50 8 0.0 0.0 0.00 0.00 0.00 88 1009.7
20260505092936 50 8 0.0 0.0 0.00 0.00 0.00 88 1009.7
20260505091436 50 8 0.0 0.0 0.00 0.00 0.00 88 1009.7
20260505085953 51 8 0.0 0.0 0.00 0.00 0.00 87 1009.3
20260505084436 51 8 0.0 0.0 0.00 0.00 0.00 86 1009.3
20260505083010 51 8 0.0 0.0 0.00 0.00 0.00 86 1009.3
20260505081436 51 8 0.0 0.0 0.00 0.00 0.00 86 1009.3
20260505075936 52 144 0.0 0.0 0.00 0.00 0.00 85 1009.2
20260505074436 52 290 0.0 0.0 0.00 0.00 0.00 83 1009.2
20260505072937 53 290 0.0 0.0 0.00 0.00 0.00 83 1009.2
20260505071436 54 290 0.0 0.0 0.00 0.00 0.00 81 1009.2
20260505065936 55 290 0.0 0.0 0.00 0.00 0.00 79 1009.4
20260505064436 56 290 0.0 0.0 0.00 0.00 0.00 77 1009.4
20260505062936 57 255 0.0 0.0 0.00 0.00 0.00 76 1009.4
20260505061436 58 242 4.3 0.0 0.00 0.00 0.00 75 1009.4
20260505055936 58 209 3.5 0.0 0.00 0.00 0.01 74 1010.0
20260505054436 58 197 5.2 0.0 0.00 0.00 0.01 74 1010.0
20260505052936 57 225 3.5 0.0 0.00 0.00 0.01 75 1010.0
20260505051436 55 231 1.7 0.0 0.00 0.00 0.01 77 1010.0
20260505041453 58 260 0.0 0.0 0.00 0.00 0.01 70 1010.2
20260505035936 59 306 0.0 0.0 0.00 0.00 0.01 68 1010.2
20260505034436 60 261 0.9 0.0 0.00 0.00 0.01 67 1010.2
20260505032936 60 237 2.6 0.0 0.00 0.00 0.01 65 1010.2
20260505031436 61 222 4.3 0.0 0.00 0.00 0.01 64 1010.2
20260505025936 62 227 3.5 0.0 0.00 0.00 0.01 62 1010.0
20260505024436 62 230 2.6 0.0 0.00 0.00 0.01 62 1010.0
20260505022936 62 215 5.2 0.0 0.00 0.00 0.01 61 1010.0
20260505021436 63 184 3.5 0.0 0.00 0.00 0.01 60 1010.0
20260505015936 63 216 2.6 0.0 0.00 0.00 0.01 59 1009.4